Weather History for Bedford, MA

Change the Weather History Date:

Thursday, February 28, 2013

  Actual Average Record
Temperature  
Mean Temperature 38 °F -  
Max Temperature 44 °F 42 °F 62 °F (1976)
Min Temperature 33 °F 21 °F -7 °F (1964)
Degree Days  
Heating Degree Days 26    
Moisture  
Dew Point 33 °F    
Average Humidity 86    
Maximum Humidity 100    
Minimum Humidity 66    
Precipitation  
Precipitation 0.00 in - - ()
Sea Level Pressure  
Sea Level Pressure 29.59 in    
Wind  
Wind Speed 3 mph (WNW)    
Max Wind Speed 7 mph    
Max Gust Speed -    
Visibility 10 miles    
Events      
Averages and records for this station are not official NWS values.
T = Trace of Precipitation, MM = Missing Value Source: NWS Daily Summary

Daily Weather History Graph

Daily Weather History Graph

Search for Another Location

Airport:

Trip Planner

Search our weather history database for the weather conditions in past years. The results will help you decide how hot, cold, wet, or windy it might be!

Date:

Astronomy

Feb. 28, 2013 Rise Set
Actual Time 6:21 AM EST 5:33 PM EST
Civil Twilight 5:53 AM EST 6:02 PM EST
Nautical Twilight 5:21 AM EST 6:34 PM EST
Astronomical Twilight 4:48 AM EST 7:07 PM EST
Moon 9:03 PM EST (2/28) 7:24 AM EST (2/28)
Length of Visible Light 12h 08m
Length of Day
11h 12m
Waning Gibbous, 91% of the Moon is Illuminated
Feb 28
Waning Gibbous
Mar 4
Last Quarter
Mar 11
New
Mar 19
First Quarter
Mar 27
Full

Hourly Weather History & Observations

Time (EST) Temp. Windchill Dew Point Humidity Pressure Visibility Wind Dir Wind Speed Gust Speed Precip Events Conditions
12:56 AM 33.8 °F 27.7 °F 33.8 °F 100% 29.56 in 10.0 mi NW 6.9 mph - N/A   Overcast
1:43 AM 33.8 °F 30.8 °F 33.8 °F 100% 29.57 in 10.0 mi WNW 3.5 mph - N/A   Overcast
1:56 AM 34.0 °F 28.8 °F 33.1 °F 96% 29.62 in 10.0 mi WNW 5.8 mph - N/A   Overcast
2:56 AM 34.0 °F 28.8 °F 33.1 °F 96% 29.62 in 10.0 mi West 5.8 mph - N/A   Overcast
3:56 AM 33.1 °F 30.0 °F 32.0 °F 96% 29.62 in 10.0 mi WNW 3.5 mph - N/A   Overcast
4:56 AM 33.1 °F 30.0 °F 30.9 °F 92% 29.64 in 10.0 mi West 3.5 mph - N/A   Overcast
5:56 AM 33.1 °F 30.0 °F 30.9 °F 92% 29.65 in 10.0 mi West 3.5 mph - N/A   Overcast
6:11 AM 33.8 °F - 30.2 °F 87% 29.61 in 10.0 mi Calm Calm - N/A   Overcast
6:56 AM 33.1 °F 30.0 °F 30.9 °F 92% 29.66 in 10.0 mi West 3.5 mph - N/A   Overcast
7:56 AM 34.0 °F - 30.9 °F 89% 29.66 in 10.0 mi Calm Calm - N/A   Overcast
8:56 AM 35.1 °F - 30.9 °F 85% 29.68 in 10.0 mi Calm Calm - N/A   Overcast
9:56 AM 37.0 °F 32.4 °F 34.0 °F 89% 29.66 in 10.0 mi SW 5.8 mph - N/A   Overcast
10:56 AM 37.9 °F 33.5 °F 34.0 °F 86% 29.65 in 10.0 mi SW 5.8 mph - N/A   Overcast
11:56 AM 39.0 °F - 34.0 °F 82% 29.64 in 10.0 mi Calm Calm - N/A   Overcast
12:43 PM 41.0 °F - 35.6 °F 81% 29.57 in 10.0 mi Calm Calm - N/A   Overcast
12:56 PM 42.1 °F - 35.1 °F 76% 29.61 in 10.0 mi Calm Calm - N/A   Overcast
1:56 PM 42.1 °F - 35.1 °F 76% 29.60 in 10.0 mi Calm Calm - N/A   Overcast
2:18 PM 44.6 °F 43.1 °F 35.6 °F 71% 29.54 in 10.0 mi East 3.5 mph - N/A   Overcast
2:56 PM 44.1 °F - 34.0 °F 68% 29.58 in 10.0 mi Calm Calm - N/A   Mostly Cloudy
3:05 PM 44.6 °F 43.1 °F 33.8 °F 66% 29.53 in 10.0 mi NNW 3.5 mph - N/A   Mostly Cloudy
3:56 PM 44.1 °F 42.5 °F 34.0 °F 68% 29.57 in 10.0 mi NW 3.5 mph - N/A   Mostly Cloudy
4:56 PM 43.0 °F 40.3 °F 34.0 °F 71% 29.58 in 10.0 mi WNW 4.6 mph - N/A   Overcast
5:56 PM 39.2 °F 35.9 °F 33.8 °F 81% 29.53 in 10.0 mi NW 4.6 mph - N/A   Overcast
6:56 PM 39.0 °F 36.8 °F 33.1 °F 79% 29.58 in 10.0 mi WNW 3.5 mph - N/A   Overcast
7:56 PM 34.0 °F 31.0 °F 32.0 °F 92% 29.58 in 10.0 mi WNW 3.5 mph - N/A   Partly Cloudy
8:56 PM 33.1 °F - 32.0 °F 96% 29.58 in 10.0 mi Calm Calm - N/A   Overcast
9:31 PM 33.8 °F - 32.0 °F 93% 29.53 in 10.0 mi Calm Calm - N/A   Overcast
9:56 PM 34.0 °F - 32.0 °F 92% 29.57 in 10.0 mi Calm Calm - N/A   Overcast
10:04 PM 33.8 °F - 30.2 °F 87% 29.52 in 10.0 mi Calm Calm - N/A   Overcast
10:56 PM 34.0 °F - 32.0 °F 92% 29.57 in 10.0 mi Calm Calm - N/A   Overcast
11:25 PM 33.8 °F - 32.0 °F 93% 29.52 in 10.0 mi Calm Calm - N/A   Overcast
11:56 PM 34.0 °F - 32.0 °F 92% 29.57 in 10.0 mi Calm Calm - N/A   Overcast